• In Portugal
  • List of Countries
  • For 7 days
  • Water Temperature
  • Satellite Maps
  • Weather Map
  • Weather Widgets
  • user-avatar
    Login

    Hourly Weather Berezovec

    Today, 23 July, Monday

    Time Temperature Precipitation Wind Pressure Humidity
    00:00 +19°C° 0.4 mm 4 mps 734 mmHg 96%
    01:00 +19°C° 0.4 mm 4 mps 734 mmHg 96%
    02:00 +18°C° 0.4 mm 4 mps 734 mmHg 97%
    03:00 +18°C° 0.1 mm 4 mps 734 mmHg 96%
    04:00 +19°C° 0.1 mm 4 mps 734 mmHg 96%
    05:00 +19°C° 0.1 mm 5 mps 734 mmHg 95%
    06:00 +19°C° 0.1 mm 4 mps 734 mmHg 94%
    07:00 +20°C° 0.1 mm 4 mps 734 mmHg 93%
    08:00 +20°C° 0.1 mm 4 mps 734 mmHg 91%
    09:00 +21°C° 0.4 mm 4 mps 734 mmHg 88%
    10:00 +22°C° 0.4 mm 4 mps 734 mmHg 85%
    11:00 +23°C° 0.4 mm 4 mps 734 mmHg 83%
    12:00 +23°C° 0.4 mm 5 mps 734 mmHg 82%
    13:00 +23°C° 0.4 mm 5 mps 734 mmHg 81%
    14:00 +25°C° 0.4 mm 5 mps 734 mmHg 80%
    15:00 +25°C° 0.4 mm 5 mps 734 mmHg 81%
    16:00 +25°C° 0.4 mm 4 mps 734 mmHg 83%
    17:00 +23°C° 0.4 mm 4 mps 734 mmHg 84%
    18:00 +23°C° 0.5 mm 4 mps 734 mmHg 87%
    19:00 +22°C° 0.5 mm 3 mps 734 mmHg 90%
    20:00 +21°C° 0.5 mm 3 mps 735 mmHg 93%
    21:00 +20°C° 0.4 mm 3 mps 735 mmHg 93%
    22:00 +20°C° 0.4 mm 2 mps 735 mmHg 94%
    23:00 +20°C° 0.4 mm 2 mps 735 mmHg 94%

    Tomorrow, 24 July, Tuesday

    Time Temperature Precipitation Wind Pressure Humidity
    00:00 +20°C° 0.1 mm 2 mps 735 mmHg 94%
    01:00 +19°C° 0.1 mm 2 mps 735 mmHg 94%
    02:00 +19°C° 0.1 mm 2 mps 735 mmHg 94%
    03:00 +19°C° 0 mm 2 mps 735 mmHg 94%
    04:00 +19°C° 0 mm 2 mps 736 mmHg 94%
    05:00 +19°C° 0 mm 2 mps 736 mmHg 94%
    06:00 +21°C° 0.1 mm 2 mps 736 mmHg 89%
    07:00 +23°C° 0.1 mm 2 mps 737 mmHg 84%
    08:00 +25°C° 0.1 mm 3 mps 737 mmHg 78%
    09:00 +26°C° 0.5 mm 3 mps 737 mmHg 74%
    10:00 +27°C° 0.5 mm 3 mps 737 mmHg 69%
    11:00 +28°C° 0.5 mm 3 mps 737 mmHg 65%
    12:00 +28°C° 0.8 mm 3 mps 737 mmHg 65%
    13:00 +28°C° 0.8 mm 3 mps 737 mmHg 64%
    14:00 +29°C° 0.8 mm 3 mps 737 mmHg 64%
    15:00 +28°C° 0.5 mm 3 mps 738 mmHg 67%
    16:00 +28°C° 0.5 mm 3 mps 738 mmHg 71%
    17:00 +28°C° 0.5 mm 3 mps 738 mmHg 75%
    18:00 +26°C° 0.2 mm 3 mps 738 mmHg 79%
    19:00 +24°C° 0.2 mm 3 mps 738 mmHg 84%
    20:00 +22°C° 0.2 mm 3 mps 739 mmHg 89%
    21:00 +21°C° 0.1 mm 3 mps 739 mmHg 91%
    22:00 +21°C° 0.1 mm 3 mps 739 mmHg 92%
    23:00 +20°C° 0.1 mm 3 mps 739 mmHg 94%

    Day after tomorrow, 25 July, Wednesday

    Time Temperature Precipitation Wind Pressure Humidity
    00:00 +20°C° 0.2 mm 3 mps 739 mmHg 94%
    01:00 +20°C° 0.2 mm 3 mps 739 mmHg 94%
    02:00 +20°C° 0.2 mm 3 mps 739 mmHg 94%
    03:00 +20°C° 0.1 mm 3 mps 739 mmHg 93%
    04:00 +20°C° 0.1 mm 3 mps 739 mmHg 92%
    05:00 +20°C° 0.1 mm 3 mps 739 mmHg 92%
    06:00 +20°C° 0.1 mm 4 mps 739 mmHg 88%
    07:00 +21°C° 0.1 mm 5 mps 739 mmHg 85%
    08:00 +21°C° 0.1 mm 6 mps 739 mmHg 82%
    09:00 +21°C° 0.8 mm 6 mps 739 mmHg 84%
    10:00 +20°C° 0.8 mm 6 mps 739 mmHg 87%
    11:00 +18°C° 0.8 mm 7 mps 739 mmHg 90%
    12:00 +20°C° 0.3 mm 7 mps 739 mmHg 88%
    13:00 +21°C° 0.3 mm 7 mps 738 mmHg 86%
    14:00 +22°C° 0.3 mm 7 mps 738 mmHg 85%
    15:00 +22°C° 0.5 mm 7 mps 738 mmHg 84%
    16:00 +23°C° 0.5 mm 6 mps 738 mmHg 83%
    17:00 +23°C° 0.5 mm 6 mps 739 mmHg 82%
    18:00 +23°C° 0.4 mm 6 mps 739 mmHg 83%
    19:00 +22°C° 0.4 mm 5 mps 739 mmHg 85%
    20:00 +21°C° 0.4 mm 5 mps 739 mmHg 86%
    21:00 +21°C° 0.1 mm 5 mps 739 mmHg 87%
    22:00 +20°C° 0.1 mm 4 mps 739 mmHg 87%
    23:00 +20°C° 0.1 mm 4 mps 739 mmHg 88%

    26 July, Thursday

    Time Temperature Precipitation Wind Pressure Humidity
    00:00 +20°C° 0.3 mm 4 mps 739 mmHg 88%
    01:00 +19°C° 0.3 mm 4 mps 740 mmHg 89%
    02:00 +19°C° 0.3 mm 3 mps 740 mmHg 89%
    03:00 +19°C° 0.1 mm 4 mps 740 mmHg 89%
    04:00 +19°C° 0.1 mm 4 mps 740 mmHg 88%
    05:00 +18°C° 0.1 mm 4 mps 740 mmHg 88%
    06:00 +19°C° 0 mm 4 mps 740 mmHg 84%
    07:00 +21°C° 0 mm 5 mps 740 mmHg 81%
    08:00 +22°C° 0 mm 5 mps 740 mmHg 78%
    09:00 +23°C° 0 mm 5 mps 741 mmHg 74%
    10:00 +26°C° 0 mm 6 mps 741 mmHg 69%
    11:00 +27°C° 0 mm 6 mps 741 mmHg 65%
    12:00 +27°C° 0 mm 6 mps 741 mmHg 64%
    13:00 +28°C° 0 mm 6 mps 741 mmHg 64%
    14:00 +28°C° 0 mm 6 mps 741 mmHg 63%
    15:00 +28°C° 0 mm 6 mps 742 mmHg 67%
    16:00 +28°C° 0 mm 5 mps 742 mmHg 71%
    17:00 +27°C° 0 mm 5 mps 742 mmHg 74%
    18:00 +26°C° 0 mm 5 mps 742 mmHg 76%
    19:00 +25°C° 0 mm 4 mps 742 mmHg 77%
    20:00 +23°C° 0 mm 4 mps 742 mmHg 78%
    21:00 +23°C° 0.1 mm 4 mps 742 mmHg 79%
    22:00 +22°C° 0.1 mm 4 mps 742 mmHg 80%
    23:00 +21°C° 0.1 mm 4 mps 742 mmHg 80%

    27 July, Friday

    Time Temperature Precipitation Wind Pressure Humidity
    00:00 +21°C° 0.6 mm 4 mps 742 mmHg 83%
    01:00 +20°C° 0.6 mm 4 mps 742 mmHg 85%
    02:00 +20°C° 0.6 mm 4 mps 743 mmHg 88%
    03:00 +20°C° 0.5 mm 4 mps 743 mmHg 87%
    04:00 +20°C° 0.5 mm 5 mps 743 mmHg 86%
    05:00 +20°C° 0.5 mm 5 mps 743 mmHg 85%
    06:00 +21°C° 0 mm 5 mps 743 mmHg 82%
    07:00 +22°C° 0 mm 6 mps 743 mmHg 80%
    08:00 +22°C° 0 mm 6 mps 743 mmHg 77%
    09:00 +23°C° 0 mm 6 mps 744 mmHg 74%
    10:00 +24°C° 0 mm 6 mps 744 mmHg 71%
    11:00 +27°C° 0 mm 6 mps 744 mmHg 69%
    12:00 +27°C° 0.1 mm 6 mps 744 mmHg 67%
    13:00 +28°C° 0.1 mm 6 mps 744 mmHg 66%
    14:00 +29°C° 0.1 mm 6 mps 744 mmHg 64%
    15:00 +28°C° 0.1 mm 5 mps 744 mmHg 68%
    16:00 +28°C° 0.1 mm 4 mps 744 mmHg 72%
    17:00 +27°C° 0.1 mm 4 mps 744 mmHg 76%
    18:00 +26°C° 0.1 mm 3 mps 744 mmHg 77%
    19:00 +25°C° 0.1 mm 3 mps 744 mmHg 79%
    20:00 +22°C° 0.1 mm 3 mps 744 mmHg 81%
    21:00 +22°C° 0.1 mm 3 mps 744 mmHg 82%
    22:00 +22°C° 0.1 mm 3 mps 744 mmHg 83%
    23:00 +21°C° 0.1 mm 3 mps 744 mmHg 84%

    28 July, Saturday

    Time Temperature Precipitation Wind Pressure Humidity
    00:00 +21°C° 0 mm 3 mps 744 mmHg 85%
    01:00 +20°C° 0 mm 3 mps 744 mmHg 86%
    02:00 +20°C° 0 mm 3 mps 744 mmHg 87%
    03:00 +20°C° 0 mm 3 mps 744 mmHg 86%
    04:00 +20°C° 0 mm 3 mps 744 mmHg 85%
    05:00 +20°C° 0 mm 3 mps 744 mmHg 85%
    06:00 +21°C° 0 mm 4 mps 744 mmHg 82%
    07:00 +22°C° 0 mm 4 mps 744 mmHg 80%
    08:00 +23°C° 0 mm 4 mps 744 mmHg 78%
    09:00 +25°C° 0.1 mm 4 mps 744 mmHg 75%
    10:00 +26°C° 0.1 mm 4 mps 744 mmHg 72%
    11:00 +27°C° 0.1 mm 4 mps 744 mmHg 68%
    12:00 +27°C° 0.1 mm 4 mps 744 mmHg 66%
    13:00 +28°C° 0.1 mm 4 mps 744 mmHg 64%
    14:00 +29°C° 0.1 mm 4 mps 744 mmHg 61%
    15:00 +28°C° 0 mm 4 mps 744 mmHg 64%
    16:00 +28°C° 0 mm 3 mps 744 mmHg 67%
    17:00 +28°C° 0 mm 3 mps 744 mmHg 70%
    18:00 +27°C° 0 mm 3 mps 744 mmHg 73%
    19:00 +25°C° 0 mm 3 mps 744 mmHg 76%
    20:00 +24°C° 0 mm 3 mps 744 mmHg 79%
    21:00 +22°C° 0 mm 3 mps 744 mmHg 80%
    22:00 +21°C° 0 mm 3 mps 744 mmHg 81%
    23:00 +20°C° 0 mm 3 mps 744 mmHg 82%
    Show more